Location: Unspecified
(0.0000°N, 0.0000°E)
Time: 14:34:58
(UTC+00:00)

TIGRISAT - Pass Details

Date: 18 December 2019
Orbit: 605 x 689 km, 97.7° (Epoch: 13 August)

Event Time Altitude Azimuth Distance (km) Brightness Sun altitude
Exits shadow 20:14:59 13° 179° (S) 1,760 ? -31.4°
Drops below altitude 10° 20:15:29 10° 181° (S) 1,962 ? -31.5°
Sets 20:17:40 0° 184° (S) 2,863 ? -32.0°
